Sussex, NJ

10:27 PM EDT on May 26, 2017 (GMT -0400)
Sussex

Weather History for KFWN - October, 2013

Change the Weather History Date:

Monday, October 14, 2013

  Actual Average Record
Temperature  
Mean Temperature 54 °F -  
Max Temperature 68 °F 64 °F 82 °F (1954)
Min Temperature 41 °F 40 °F 23 °F (1981)
Degree Days  
Heating Degree Days 12    
Growing Degree Days 4 (Base 50)    
Moisture  
Dew Point 45 °F    
Average Humidity 85    
Maximum Humidity 100    
Minimum Humidity 45    
Precipitation  
Precipitation 0.00 in - - ()
Sea Level Pressure  
Sea Level Pressure 30.33 in    
Wind  
Wind Speed 0 mph (SSE)    
Max Wind Speed 5 mph    
Max Gust Speed -    
Visibility 7 miles    
Events Fog    
Averages and records for this station are not official NWS values.
T = Trace of Precipitation, MM = Missing Value Source: NWS Daily Summary

Daily Weather History Graph

Daily Weather History Graph

Search for Another Location

Airport or City:

Trip Planner

Search our weather history database for the weather conditions in past years. The results will help you decide how hot, cold, wet, or windy it might be!

Date:

Astronomy

Oct. 14, 2013 Rise Set
Actual Time 7:09 AM EDT 6:18 PM EDT
Civil Twilight 6:41 AM EDT 6:46 PM EDT
Nautical Twilight 6:09 AM EDT 7:18 PM EDT
Astronomical Twilight 5:37 AM EDT 7:50 PM EDT
Moon 3:49 PM EDT (10/14) 2:20 AM EDT (10/14)
Length of Visible Light 12h 05m
Length of Day
11h 09m
Waxing Gibbous, 79% of the Moon is Illuminated
Oct 14
Waxing Gibbous
Oct 18
Full
Oct 26
Last Quarter
Nov 3
New
Nov 10
First Quarter

Hourly Weather History & Observations

Time (EDT) Temp. Dew Point Humidity Pressure Visibility Wind Dir Wind Speed Gust Speed Precip Events Conditions
12:48 AM 44.6 °F 42.8 °F 93% 30.37 in 1.8 mi Calm Calm - N/A   Partly Cloudy
12:49 AM 44.6 °F 42.8 °F 93% 30.37 in 2.0 mi Calm Calm - N/A   Partly Cloudy
12:53 AM 44.1 °F 43.0 °F 96% 30.38 in 3.0 mi Calm Calm - N/A   Partly Cloudy
1:27 AM 42.8 °F 42.8 °F 100% 30.37 in 2.0 mi Calm Calm - N/A   Clear
1:37 AM 42.8 °F 42.8 °F 100% 30.37 in 6.0 mi Calm Calm - N/A   Partly Cloudy
1:53 AM 43.0 °F 42.1 °F 97% 30.37 in 8.0 mi Calm Calm - N/A   Clear
2:39 AM 42.8 °F 41.0 °F 93% 30.36 in 2.5 mi Calm Calm - N/A   Scattered Clouds
2:41 AM 42.8 °F 41.0 °F 93% 30.36 in 1.2 mi Calm Calm - N/A   Mostly Cloudy
2:49 AM 41.0 °F 41.0 °F 100% 30.36 in 0.5 mi Calm Calm - N/A Fog Fog
2:53 AM 41.0 °F 41.0 °F 100% 30.36 in 1.0 mi Calm Calm - N/A   Mostly Cloudy
2:55 AM 41.0 °F 41.0 °F 100% 30.36 in 2.5 mi Calm Calm - N/A   Mostly Cloudy
3:02 AM 42.8 °F 42.8 °F 100% 30.36 in 6.0 mi Calm Calm - N/A   Overcast
3:09 AM 42.8 °F 42.8 °F 100% 30.35 in 8.0 mi Calm Calm - N/A   Overcast
3:53 AM 45.0 °F 45.0 °F 100% 30.36 in 7.0 mi Calm Calm - N/A   Overcast
4:53 AM 45.0 °F 44.1 °F 97% 30.36 in 8.0 mi Calm Calm - N/A   Overcast
5:53 AM 45.0 °F 44.1 °F 97% 30.36 in 8.0 mi Calm Calm - N/A   Overcast
6:53 AM 45.0 °F 45.0 °F 100% 30.37 in 8.0 mi Calm Calm - N/A   Overcast
7:53 AM 46.0 °F 45.0 °F 96% 30.37 in 8.0 mi Calm Calm - N/A   Overcast
8:53 AM 48.0 °F 46.9 °F 96% 30.38 in 8.0 mi Calm Calm - N/A   Overcast
9:53 AM 53.1 °F 51.1 °F 93% 30.38 in 10.0 mi Calm Calm - N/A   Overcast
10:32 AM 55.4 °F 48.2 °F 77% 30.36 in 10.0 mi Variable 3.5 mph - N/A   Scattered Clouds
10:53 AM 55.9 °F 48.0 °F 75% 30.37 in 10.0 mi SSE 4.6 mph - N/A   Clear
11:53 AM 59.0 °F 48.0 °F 67% 30.34 in 10.0 mi Variable 4.6 mph - N/A   Clear
12:53 PM 61.0 °F 48.0 °F 62% 30.31 in 10.0 mi SSE 3.5 mph - N/A   Clear
1:53 PM 64.0 °F 46.9 °F 54% 30.28 in 10.0 mi Calm Calm - N/A   Clear
2:53 PM 66.0 °F 46.9 °F 50% 30.26 in 10.0 mi Calm Calm - N/A   Clear
3:53 PM 66.9 °F 45.0 °F 45% 30.25 in 10.0 mi Calm Calm - N/A   Clear
4:53 PM 66.9 °F 45.0 °F 45% 30.24 in 10.0 mi Calm Calm - N/A   Clear
5:53 PM 64.0 °F 45.0 °F 50% 30.25 in 10.0 mi Calm Calm - N/A   Clear
6:53 PM 57.0 °F 46.9 °F 69% 30.27 in 10.0 mi Calm Calm - N/A   Clear
7:53 PM 54.0 °F 48.0 °F 80% 30.28 in 10.0 mi Calm Calm - N/A   Scattered Clouds
8:53 PM 53.1 °F 48.0 °F 83% 30.27 in 10.0 mi Calm Calm - N/A   Clear
9:53 PM 50.0 °F 48.0 °F 93% 30.28 in 10.0 mi Calm Calm - N/A   Clear
10:53 PM 46.9 °F 46.0 °F 97% 30.28 in 10.0 mi Calm Calm - N/A   Clear
11:53 PM 46.9 °F 45.0 °F 93% 30.28 in 7.0 mi Calm Calm - N/A   Clear